CAPE
1400 1383 1383 1450 1480 1502 1535 1528 1520 1474 1428 1370 1313 1372 1474 1511 1517 1534 1526 1530 1560 1620 1636 1594 1558 1546 1533 1444 1297 1170 1063 774 684 674 636 503 166 0 0 0 0 0 0 0 0 0 0 0 0 0 0 0 0 0 0 0 0 0 0 0 0 0 0 0 0 0 0 0 0 0 0 0 0 0 0 0 0 0 0 0 0 0 0 0 0
1548 1556 1481 1448 1470 1509 1557 1604 1594 1567 1546 1531 1484 1431 1460 1516 1579 1603 1569 1563 1566 1590 1588 1561 1532 1520 1503 1436 1282 1174 1128 893 662 598 588 441 12 0 0 0 0 0 0 0 0 0 0 0 0 0 0 0 0 0 0 0 0 0 0 0 0 0 0 0 0 0 0 0 0 0 0 0 27 0 0 1 0 1 0 0 0 0 0 0 0
1608 1689 1693 1614 1540 1526 1562 1640 1690 1697 1674 1674 1652 1599 1568 1564 1543 1586 1626 1639 1610 1591 1560 1546 1520 1486 1463 1371 1257 1170 1146 1087 747 614 498 382 147 82 48 0 0 0 0 0 0 0 0 0 0 0 0 0 0 0 0 0 0 0 0 0 0 0 0 0 0 0 0 0 0 0 0 0 15 22 1 8 54 43 0 0 1 1 4 0 0
1640 1763 1832 1821 1737 1647 1616 1640 1730 1786 1790 1794 1788 1748 1692 1677 1639 1619 1637 1635 1638 1628 1598 1560 1487 1434 1382 1302 1233 1195 1157 1130 964 700 495 362 348 395 338 0 0 0 0 0 0 0 0 0 0 0 0 0 0 0 0 0 0 0 0 0 0 0 0 0 0 0 0 0 0 0 0 0 0 0 88 64 58 64 85 128 130 139 126 11 2
1686 1778 1882 1944 1933 1874 1775 1727 1744 1810 1872 1888 1896 1876 1823 1775 1739 1724 1708 1707 1699 1676 1666 1628 1461 1366 1311 1273 1246 1222 1186 1132 1064 878 650 541 548 535 473 0 0 0 0 0 11 0 0 0 0 0 0 0 0 0 0 0 0 0 0 0 0 0 0 1 0 0 1 0 0 0 0 0 33 70 74 79 96 117 144 178 212 227 130 179 160
1736 1789 1876 1962 2023 2032 1994 1914 1867 1868 1904 1946 1971 1980 1945 1878 1828 1809 1798 1785 1782 1760 1731 1636 1491 1370 1317 1290 1267 1249 1210 1153 1109 1036 828 662 648 673 591 297 0 0 0 0 0 0 0 11 0 0 0 0 0 0 0 0 0 0 8 23 37 6 0 0 0 0 12 15 6 100 100 84 64 64 86 114 132 172 223 260 272 266 206 90 1
1796 1827 1886 1958 2030 2101 2131 2115 2068 2034 2007 2018 2030 2054 2052 1990 1927 1892 1873 1874 1850 1824 1791 1704 1553 1435 1382 1346 1326 1307 1256 1194 1180 1176 1064 780 644 614 523 354 0 0 0 0 0 0 233 76 0 0 0 0 107 0 0 0 0 9 56 47 30 36 44 63 10 19 30 28 74 121 142 119 80 106 121 152 200 196 182 210 222 236 204 147 23
1858 1892 1947 2000 2050 2126 2193 2236 2249 2213 2176 2144 2130 2145 2156 2124 2057 1986 1941 1935 1925 1895 1856 1765 1676 1578 1500 1442 1410 1375 1327 1255 1221 1244 1216 988 720 580 529 487 462 78 0 0 0 193 363 348 297 166 0 0 0 0 0 0 0 0 29 27 36 50 35 79 31 17 21 24 37 128 109 120 86 107 154 212 228 145 150 148 162 183 188 62 0
1961 2013 2053 2076 2118 2162 2242 2318 2354 2364 2349 2313 2279 2251 2250 2254 2205 2112 2044 2006 1977 1950 1908 1816 1733 1632 1569 1528 1505 1490 1442 1357 1307 1284 1258 1083 878 705 639 641 636 576 220 0 0 312 528 398 469 320 2 28 89 54 0 2 0 0 10 40 46 76 116 134 64 62 11 86 70 90 106 124 109 138 190 165 129 96 97 117 135 139 39 0 0
2076 2152 2184 2206 2224 2250 2323 2403 2463 2488 2481 2455 2423 2387 2365 2356 2329 2270 2185 2114 2048 1986 1926 1847 1758 1677 1642 1618 1610 1578 1524 1454 1396 1355 1292 1161 981 830 777 773 770 744 689 562 380 524 672 697 519 314 200 368 500 580 239 212 146 94 91 93 85 98 116 116 101 115 132 124 112 69 38 97 152 171 142 150 137 125 138 161 122 83 0 0 0
2182 2275 2328 2341 2355 2383 2437 2499 2547 2591 2598 2570 2556 2514 2483 2455 2440 2408 2342 2241 2157 2087 1996 1910 1848 1801 1763 1733 1686 1648 1613 1556 1517 1478 1467 1380 1158 976 900 884 868 844 811 766 654 764 830 708 550 406 347 471 738 832 587 440 431 299 135 130 118 94 82 92 131 146 168 167 120 68 72 105 168 184 151 152 172 190 191 176 143 107 0 0 0
2282 2389 2446 2469 2494 2529 2555 2590 2636 2676 2674 2670 2643 2612 2583 2544 2505 2476 2422 2342 2264 2192 2116 2012 1933 1909 1893 1874 1818 1760 1701 1653 1652 1644 1662 1624 1485 1259 1074 996 999 1009 852 793 880 941 834 753 681 501 282 282 364 772 984 786 440 441 300 200 232 142 99 156 144 106 115 130 107 93 87 113 112 102 130 202 280 255 231 184 140 112 9 0 0
2390 2489 2570 2606 2641 2652 2669 2686 2728 2747 2750 2738 2722 2688 2654 2598 2554 2502 2457 2388 2298 2241 2201 2124 2062 2014 1981 1950 1935 1919 1874 1794 1750 1751 1768 1742 1662 1533 1412 1336 1296 1261 1091 1194 1118 1122 1130 905 798 571 386 566 690 426 588 944 721 422 402 328 253 225 220 219 217 164 102 68 58 86 100 73 48 102 203 368 380 253 256 234 236 214 192 120 12
2522 2586 2672 2743 2774 2769 2767 2792 2815 2816 2814 2807 2788 2764 2718 2658 2589 2532 2471 2399 2324 2268 2217 2171 2138 2104 2060 2034 2018 1998 1970 1934 1913 1882 1856 1796 1732 1673 1627 1582 1526 1403 1458 1509 1416 1459 1392 1158 991 810 497 357 273 322 449 510 831 891 658 491 469 406 357 288 250 278 246 144 61 92 122 87 145 192 372 514 436 357 286 283 260 210 198 214 226
2608 2682 2756 2852 2885 2876 2876 2874 2888 2888 2882 2874 2847 2819 2783 2724 2645 2557 2466 2404 2369 2314 2248 2200 2191 2180 2156 2147 2111 2071 2069 2024 1997 1976 1964 1938 1872 1815 1782 1720 1542 1672 1768 1739 1658 1629 1588 1406 1138 856 585 430 370 178 327 442 543 696 746 689 614 517 474 394 340 356 372 220 76 106 152 162 156 410 551 458 358 341 294 215 171 137 0 0 0
2615 2718 2800 2900 2963 2981 2963 2962 2964 2959 2943 2933 2901 2862 2828 2775 2696 2594 2504 2444 2381 2340 2295 2260 2245 2214 2202 2214 2196 2193 2157 2105 2080 2060 2038 2029 2004 1953 1909 1807 1830 1982 2003 1920 1772 1705 1619 1476 1288 958 632 488 383 290 219 126 365 422 490 544 530 546 507 516 525 456 427 141 106 94 88 237 618 623 477 395 323 165 138 40 0 0 0 0 0
2496 2663 2790 2886 2975 3025 3015 3011 3004 2998 2982 2968 2946 2906 2852 2805 2731 2640 2576 2490 2424 2367 2344 2358 2314 2294 2294 2276 2259 2250 2210 2198 2178 2156 2158 2165 2130 2081 2024 1978 2111 2198 2137 1963 1949 1871 1645 1412 1229 1002 755 657 464 342 219 425 474 507 554 596 614 437 354 511 446 323 287 199 128 124 506 742 650 446 318 233 168 165 126 22 30 0 1 0 0
2328 2516 2690 2832 2943 3014 3034 3035 3032 3018 3003 2992 2980 2951 2887 2829 2783 2726 2673 2578 2487 2406 2367 2368 2383 2389 2378 2368 2374 2361 2346 2338 2300 2292 2298 2285 2256 2217 2130 2317 2390 2415 2343 2160 2079 1984 1678 1319 1124 1055 885 694 604 379 387 379 443 469 454 461 451 390 0 47 43 76 58 184 381 497 485 421 380 312 261 266 262 224 158 40 2 3 2 0 0
2242 2386 2555 2714 2851 2952 3020 3052 3059 3044 3026 3026 3000 2972 2933 2897 2856 2818 2768 2677 2583 2490 2422 2398 2400 2394 2408 2427 2441 2448 2458 2450 2418 2410 2406 2418 2392 2356 2536 2618 2622 2500 2348 2246 2124 1901 1546 1220 1138 1127 979 806 668 604 406 196 434 441 456 121 2 0 0 0 1 77 185 220 235 188 212 243 289 298 295 293 229 87 0 0 0 0 0 0 0
2194 2328 2458 2582 2708 2852 2964 3044 3064 3044 3034 3030 2995 2970 2950 2924 2918 2872 2838 2777 2716 2624 2527 2454 2416 2402 2437 2472 2500 2527 2521 2519 2508 2498 2514 2538 2560 2792 2882 2829 2759 2622 2402 2218 2024 1772 1563 1408 1296 1252 1088 940 772 322 409 482 643 619 98 127 0 1 0 0 2 20 3 4 86 79 248 316 327 355 272 64 1 25 2 0 0 0 0 0 0
2179 2238 2357 2486 2608 2736 2871 2980 3042 3036 3002 2994 2983 2953 2928 2924 2906 2891 2893 2868 2785 2738 2654 2550 2487 2489 2509 2547 2582 2604 2608 2639 2624 2641 2696 2804 2938 3069 3090 2983 2724 2405 2194 1992 1821 1668 1534 1418 1314 1150 988 838 582 572 674 731 477 162 145 23 4 0 0 0 16 6 0 46 178 227 268 308 303 36 0 0 0 0 0 0 0 0 0 0 0
2248 2258 2284 2390 2536 2696 2817 2924 3011 3037 2997 2961 2943 2936 2927 2906 2909 2913 2915 2912 2876 2812 2732 2660 2597 2613 2655 2715 2744 2770 2796 2802 2839 2903 2998 3112 3166 3206 3086 2822 2596 2406 2118 1866 1608 1530 1447 1376 1234 1064 869 681 534 521 526 483 490 145 53 28 0 0 0 0 0 0 0 148 222 262 247 0 0 0 0 0 0 0 0 0 0 0 0 0 0
2296 2292 2308 2367 2445 2618 2780 2911 3009 3042 3040 2982 2942 2947 2930 2928 2936 2967 2972 2950 2914 2868 2811 2758 2721 2739 2799 2866 2914 2972 3020 3046 3100 3184 3265 3252 3256 3085 2851 2692 2540 2240 1903 1687 1555 1421 1308 1137 988 831 701 510 440 416 348 103 69 59 13 0 0 0 0 0 0 0 122 177 220 36 0 0 0 0 0 0 0 0 0 0 0 0 0 0 0
2376 2433 2434 2452 2444 2505 2679 2840 2969 3048 3066 3031 2940 2960 2965 2951 2969 3006 3010 2965 2931 2896 2850 2839 2838 2866 2916 2982 3068 3132 3195 3268 3297 3380 3354 3248 3091 2888 2808 2656 2059 1669 1572 1439 1297 1178 1096 990 797 586 343 321 297 269 149 84 62 10 0 0 0 0 0 0 70 122 158 0 0 0 0 0 0 0 0 0 0 0 0 0 0 0 0 0 0
2178 2371 2496 2512 2495 2488 2483 2648 2818 2975 3059 3085 3039 2973 2999 3014 3038 3051 3013 2963 2943 2910 2908 2906 2960 3014 3042 3120 3202 3257 3334 3346 3428 3416 3261 3103 2906 2923 2765 1620 1458 1365 1295 1238 1145 1045 853 627 123 0 123 206 170 0 40 56 0 0 0 0 0 0 0 49 96 85 0 0 0 0 0 0 0 0 0 0 0 0 0 0 0 0 0 0 0
2262 2224 2250 2356 2460 2491 2496 2458 2544 2807 3029 3107 3128 3114 3054 3040 3069 3056 2958 2945 2935 2944 2935 2966 3035 3094 3158 3261 3338 3376 3398 3445 3417 3305 3119 3002 3028 2838 1425 1191 1160 1130 1060 969 806 564 0 0 39 118 122 127 32 6 0 0 0 0 0 0 0 0 31 12 0 0 0 0 0 0 0 0 0 0 0 0 0 0 0 0 0 0 0 0 0
2736 2552 2362 2264 2223 2252 2330 2360 2367 2581 2883 3049 3138 3180 3144 3106 3040 3036 3020 2922 2934 2944 2960 3003 3071 3132 3231 3334 3396 3443 3505 3420 3345 3285 3152 3207 2842 1323 900 861 853 820 816 675 477 0 2 181 180 179 142 61 10 0 0 0 0 0 0 0 0 10 0 0 0 0 0 0 0 0 0 0 0 0 0 0 0 0 0 0 0 0 0 0 0
3152 3096 2976 2822 2660 2434 2351 2360 2360 2418 2722 2958 3103 3151 3189 3166 3089 3083 3020 2884 2876 2858 2886 2913 2973 3090 3142 3322 3376 3402 3428 3445 3394 3350 3302 3120 1317 856 660 689 741 686 514 345 0 0 34 251 248 188 128 7 0 0 0 0 0 0 0 0 21 0 0 0 0 0 0 0 0 0 0 0 0 0 0 0 0 0 0 0 0 0 0 0 0
3217 3172 3130 3098 3062 3002 2884 2735 2409 2472 2751 2972 3094 3157 3221 3216 3154 3105 3053 3017 2859 2760 2871 2966 3022 2834 2708 2939 3042 3217 3340 3484 3488 3387 2804 1313 1072 754 656 621 570 438 157 0 0 0 258 262 198 126 0 0 0 0 0 0 0 17 0 36 0 0 0 0 0 0 0 0 0 0 0 0 0 0 0 0 0 0 0 0 0 0 0 0 0
3708 3666 3505 3173 3010 2954 2913 2878 2855 2787 2871 3035 3150 3209 3232 3244 3186 3117 3022 3120 3048 2974 2890 3007 2844 2668 2801 2659 2776 2961 3472 3550 3352 2178 1343 1172 906 743 653 541 439 267 0 0 0 227 247 194 34 0 0 0 0 0 0 9 31 0 16 0 0 0 0 0 0 0 0 0 0 0 0 0 0 0 0 0 0 0 0 0 0 0 0 0 0
3677 3742 3768 3690 3492 3182 2997 2926 2896 2861 2847 2967 3062 3154 3182 3238 3246 3220 3121 2914 3147 3084 2917 3232 3122 2878 2777 2443 2772 3376 2528 1919 1538 1265 1091 890 682 632 622 553 428 362 244 0 0 170 212 25 125 96 0 0 0 0 0 0 0 0 0 0 0 0 0 0 0 0 0 0 0 0 0 0 0 0 0 0 0 0 0 0 0 0 0 0 0
3506 3467 3558 3620 3610 3500 3360 3256 3102 2976 2904 2958 2974 3044 3083 3062 3282 3166 3088 2990 2806 3158 3378 3216 2824 3013 2454 2460 2740 2462 1534 1277 1091 964 779 589 535 520 529 510 421 367 324 0 0 161 129 64 23 0 0 0 0 0 0 0 0 0 0 0 0 0 0 0 0 0 0 0 0 0 1 0 0 0 0 0 0 0 0 0 0 0 0 0 0
3452 3456 3348 3396 3500 3554 3578 3553 3489 3411 3208 2946 2846 2906 2866 2910 2917 2909 2965 2803 2937 3035 2726 2483 2575 2182 2095 1779 1560 1428 1033 845 702 582 500 510 504 480 470 394 130 0 0 0 0 0 0 0 0 0 0 0 0 0 0 0 0 0 0 0 0 0 0 0 2 7 8 11 13 8 2 0 0 0 0 0 0 0 0 0 0 0 0 0 0
3190 3268 3269 3212 3297 3419 3620 3612 3310 3117 3178 3151 2910 2761 2694 2727 2704 2690 2692 2873 2600 2190 2003 2170 1936 1465 1354 1146 870 689 569 494 492 532 568 586 553 487 397 0 0 0 0 0 0 0 0 0 0 0 0 0 0 0 0 0 0 0 0 0 0 0 0 0 6 13 14 10 2 2 0 0 0 0 0 0 0 0 0 0 0 0 0 0 0
2238 2385 2532 2812 2940 2994 3014 3131 2976 2578 1941 990 1549 1726 1959 1995 2337 2297 2438 2232 1913 1693 1470 1430 1295 1049 827 514 425 558 660 674 648 679 668 652 556 450 0 0 0 3 0 0 0 0 0 0 0 0 0 0 0 0 0 0 0 0 0 0 0 0 0 0 0 0 0 2 2 2 1 0 0 0 0 0 0 0 0 0 0 0 0 0 0
1659 1724 1799 1904 1646 1604 1332 695 172 429 496 654 416 281 5 564 1707 1657 1128 1079 1034 1257 991 1087 846 437 451 675 790 824 781 659 599 630 620 551 465 32 0 0 0 0 0 0 0 0 0 0 0 0 0 0 0 0 0 0 0 0 0 0 0 0 0 0 0 0 0 0 0 0 0 0 0 0 0 0 0 0 0 0 0 0 0 0 0
1306 1158 1273 1356 1219 1021 880 902 696 357 70 73 84 446 478 592 418 410 499 661 730 765 734 490 511 634 740 783 743 722 662 524 353 228 245 49 0 0 0 0 0 0 0 0 0 0 0 0 0 0 0 0 0 0 0 0 0 0 0 0 0 0 0 0 0 0 0 0 0 0 0 0 0 0 0 0 0 0 0 0 0 0 0 0 0
1293 1065 824 906 1146 870 602 676 777 780 775 563 544 530 508 568 610 604 620 639 608 466 476 612 678 622 627 549 517 499 419 94 0 0 0 0 0 0 0 0 0 0 0 0 0 0 0 0 0 0 0 0 0 0 0 0 0 0 0 0 0 0 0 0 0 0 0 0 0 0 0 0 0 0 0 0 0 0 0 0 0 0 0 0 0
1324 1257 911 798 757 779 789 929 1026 1214 1207 1088 1034 938 920 912 863 787 612 408 386 486 618 654 719 686 582 428 352 124 0 0 0 0 0 0 0 0 29 264 144 0 0 0 0 0 0 0 0 0 0 0 0 0 0 0 0 0 0 0 0 0 0 0 0 0 0 0 0 0 0 0 0 0 0 0 0 0 0 0 0 0 0 0 0
1476 1301 1198 1016 993 944 796 749 943 1236 1292 1331 1266 1161 1022 912 700 516 455 434 483 488 508 494 471 394 361 296 0 0 0 0 0 0 0 0 0 62 199 171 113 48 0 0 0 0 0 0 0 0 0 0 0 0 0 0 0 0 0 0 0 0 0 0 0 0 0 0 0 0 0 0 0 0 0 0 0 0 0 0 0 0 0 0 0
1168 1068 1084 1106 1156 1094 1022 708 943 1115 996 1019 872 644 523 486 479 494 521 497 407 319 277 108 95 136 0 0 0 0 0 0 0 0 0 0 0 17 31 30 0 0 0 0 0 0 0 0 0 0 0 0 0 0 0 0 0 0 0 0 0 0 0 0 0 0 0 0 0 0 0 0 0 0 0 0 0 0 0 0 0 0 0 0 0
841 824 762 712 779 908 1099 1184 1132 1035 997 896 719 536 401 374 348 334 316 275 133 0 0 0 0 0 0 0 0 0 0 0 0 0 0 0 0 0 0 0 0 0 0 0 0 0 0 0 0 0 0 0 0 0 0 0 0 0 0 0 0 0 0 0 0 0 0 0 0 0 0 0 0 0 0 0 0 0 0 0 0 0 0 0 0
802 756 696 657 695 794 895 938 895 878 886 880 790 718 632 584 514 425 401 343 62 0 0 0 0 0 0 0 0 0 0 0 0 0 0 0 0 0 0 0 0 0 0 0 0 0 0 0 0 0 0 0 0 0 0 0 0 0 0 0 0 0 0 0 0 0 0 0 0 0 0 0 0 0 0 0 0 0 0 0 0 0 0 0 0
714 724 729 698 716 712 664 591 543 488 418 393 416 482 560 589 556 420 117 0 0 0 0 0 0 0 0 0 0 0 0 0 0 0 0 0 0 0 0 0 0 0 0 0 0 0 0 0 0 0 0 0 0 0 0 0 0 0 0 0 0 0 0 0 0 0 0 0 0 0 0 0 0 0 0 0 0 0 0 0 0 0 0 0 0
605 678 713 704 722 719 694 676 566 441 342 298 308 321 369 431 348 0 0 0 0 0 0 0 0 0 0 0 0 0 0 0 0 0 0 0 0 0 0 0 0 0 0 0 0 0 0 0 0 0 0 0 0 0 0 0 0 0 0 0 0 0 0 0 0 0 0 0 0 0 0 0 0 0 0 0 0 0 0 0 0 0 0 0 0
259 0 329 539 667 755 775 798 754 647 495 378 313 281 148 126 78 4 2 0 0 0 0 0 0 0 0 0 0 0 0 0 0 0 0 0 0 0 0 0 0 0 0 0 0 0 0 0 0 0 0 0 0 0 4 8 2 0 0 0 0 0 0 0 0 0 0 0 0 0 0 0 0 0 0 0 0 0 0 0 0 0 0 0 0
0 0 0 0 0 165 497 692 733 717 652 546 460 385 328 279 241 208 153 125 81 38 0 0 0 0 0 0 0 0 0 0 0 0 0 0 0 0 0 0 0 0 0 0 0 0 0 0 0 0 0 0 0 10 21 16 6 3 4 3 0 0 0 0 0 0 0 0 0 0 0 0 0 0 0 0 0 0 0 0 0 0 0 0 0
0 0 0 24 83 163 246 329 423 544 636 630 583 497 448 412 414 385 320 239 143 112 116 108 41 0 0 0 0 0 0 0 0 0 0 0 0 0 0 0 0 0 0 0 0 0 0 0 0 0 0 0 12 22 24 21 10 8 8 2 0 0 0 0 0 0 0 0 0 0 0 0 0 0 0 0 0 0 0 0 0 0 0 0 0
111 98 52 54 77 110 137 126 156 292 177 353 296 160 148 228 360 277 192 174 168 139 107 34 0 0 0 0 0 0 0 0 0 0 0 0 0 0 0 0 0 0 0 0 0 0 0 0 0 0 0 15 33 42 34 21 12 12 8 1 0 0 0 0 0 0 0 0 0 0 0 0 0 0 0 0 0 0 0 0 0 0 0 0 0
27 37 37 25 53 42 56 86 57 0 61 99 65 78 0 128 157 152 214 197 178 60 0 0 0 0 0 0 0 0 0 0 0 0 1 0 0 0 0 0 0 0 0 0 0 0 0 0 4 17 29 40 50 46 31 13 10 4 1 0 0 0 0 0 0 0 0 0 0 0 0 0 0 0 0 0 0 0 0 0 0 0 0 0 0
30 27 41 35 16 46 31 10 36 60 67 60 61 104 139 192 281 276 290 252 228 178 155 144 124 94 73 55 39 36 30 6 0 0 0 0 0 0 0 0 0 0 0 0 0 0 0 0 20 31 45 55 50 38 24 14 5 0 0 0 0 0 0 0 0 0 0 0 0 0 0 0 0 0 0 0 0 0 0 0 0 0 0 0 0
Wind_Speed
18 16 17 16 17 17 18 19 19 20 21 22 22 22 24 23 22 21 19 16 17 14 11 8 6 6 8 8 10 11 13 13 14 15 17 17 18 nan nan nan nan nan nan nan nan nan nan nan nan nan nan nan nan nan nan nan nan nan nan nan nan nan nan nan nan nan nan nan nan nan nan nan nan nan nan nan nan nan nan nan nan nan nan nan nan
17 16 15 15 15 16 18 20 20 21 21 21 21 23 24 25 24 22 17 15 16 13 10 8 6 6 6 7 9 10 12 14 15 16 17 17 nan nan nan nan nan nan nan nan nan nan nan nan nan nan nan nan nan nan nan nan nan nan nan nan nan nan nan nan nan nan nan nan nan nan nan nan nan nan nan nan nan nan nan nan nan nan nan nan nan
15 16 16 15 15 15 17 19 20 21 21 21 22 23 24 25 24 19 15 16 16 13 10 8 6 6 5 6 8 10 13 14 15 16 16 18 20 nan nan nan nan nan nan nan nan nan nan nan nan nan nan nan nan nan nan nan nan nan nan nan nan nan nan nan nan nan nan nan nan nan nan nan nan nan nan nan nan nan nan nan nan nan nan nan nan
14 15 16 16 16 16 16 17 19 19 20 20 21 22 24 24 21 16 15 17 16 13 11 9 8 6 5 6 8 10 13 14 15 16 16 18 21 23 25 nan nan nan nan nan nan nan nan nan nan nan nan nan nan nan nan nan nan nan nan nan nan nan nan nan nan nan nan nan nan nan nan nan nan nan nan nan nan nan nan 27 28 28 28 nan nan
15 16 16 18 17 16 15 15 15 16 16 16 17 19 20 20 18 15 17 16 16 15 13 11 8 6 5 7 8 10 13 15 16 16 16 18 21 24 26 nan nan nan nan nan nan nan nan nan nan nan nan nan nan nan nan nan nan nan nan nan nan nan nan nan nan nan nan nan nan nan nan nan nan nan nan nan nan 28 27 27 27 29 29 31 34
17 17 18 19 18 18 15 13 13 13 13 13 14 16 17 17 17 16 17 16 16 16 13 12 9 7 6 7 8 11 14 16 17 18 19 19 21 24 26 28 nan nan nan nan nan nan nan nan nan nan nan nan nan nan nan nan nan nan nan nan nan nan nan nan nan nan nan nan nan nan 39 nan nan nan nan 37 31 26 23 23 27 31 33 nan nan
19 19 19 20 20 19 17 13 12 12 12 12 15 17 17 16 16 16 17 18 17 16 14 12 10 9 7 7 9 11 14 16 18 19 19 21 23 25 27 29 nan nan nan nan nan nan 33 nan nan nan nan nan 33 nan nan nan nan nan nan nan nan nan nan nan nan nan nan nan nan 38 37 38 nan 33 37 38 35 30 25 25 29 35 37 36 nan
21 20 20 20 20 20 17 14 12 12 12 14 16 18 18 17 16 17 20 18 16 15 14 12 13 12 9 8 9 11 14 16 18 19 20 23 25 26 28 31 33 nan nan nan nan 32 32 32 31 32 nan nan nan nan nan nan nan nan nan nan nan nan nan nan nan nan nan nan nan 36 37 35 nan 32 37 38 35 30 30 32 34 35 37 nan nan
23 21 20 20 21 20 18 16 14 14 15 15 16 18 19 19 19 20 19 18 18 16 16 16 15 12 10 9 10 11 13 16 17 19 22 24 26 27 29 32 34 36 35 nan nan 30 30 31 30 31 nan nan nan nan nan nan nan nan nan nan nan nan 44 45 nan nan nan nan nan nan 30 29 28 27 29 29 28 nan nan 36 34 36 nan nan nan
25 24 21 21 21 21 21 19 17 17 18 17 17 18 20 21 21 20 18 18 19 20 19 17 14 12 12 11 10 11 12 14 17 24 25 25 27 28 29 31 33 34 34 32 29 29 31 31 31 34 37 38 39 40 40 41 42 nan nan nan nan nan 46 48 50 47 41 38 36 nan nan nan 24 27 28 27 28 31 32 36 36 nan nan nan nan
24 24 21 21 23 24 23 22 21 20 19 20 20 20 21 23 23 21 20 20 20 21 21 17 13 12 12 12 11 10 11 14 20 23 26 29 28 28 28 30 32 32 33 32 31 31 30 31 31 34 36 38 38 41 41 43 44 44 45 48 47 nan nan nan 48 42 38 37 37 nan nan 28 25 27 28 28 35 39 39 40 40 42 nan nan nan
21 21 20 21 24 25 24 24 24 22 22 22 22 23 24 24 24 23 23 22 22 22 19 15 13 13 13 11 10 10 11 15 20 22 26 29 30 28 27 29 31 32 33 34 33 33 33 33 33 33 34 36 37 38 40 44 45 45 45 46 47 47 nan 49 47 42 41 42 41 nan nan 31 29 30 31 40 44 48 47 46 46 46 nan nan nan
20 20 22 24 25 25 25 26 25 24 24 24 25 26 26 26 25 25 24 24 25 22 17 14 13 14 13 11 10 9 10 15 18 22 26 30 31 30 28 30 32 33 35 37 36 36 35 35 35 35 35 38 38 39 39 40 44 46 45 45 46 53 54 53 50 48 49 nan nan nan 34 nan nan 36 43 51 55 53 52 51 51 49 48 45 nan
19 21 24 26 27 27 27 26 26 25 26 27 28 29 28 26 26 27 28 30 26 20 16 13 13 15 13 11 9 9 10 15 20 24 27 31 32 32 28 31 32 34 37 40 40 41 40 38 37 37 37 37 38 40 40 41 41 42 44 46 48 50 52 53 54 56 55 52 nan nan 39 nan 42 45 49 56 56 53 54 51 49 46 46 45 44
22 24 26 27 28 29 28 27 27 27 28 29 30 30 29 27 28 29 30 29 26 20 17 15 14 14 13 12 11 11 12 20 23 26 29 32 33 33 29 30 32 34 38 40 43 45 44 40 38 38 39 39 39 41 41 41 42 43 45 46 49 49 46 47 50 51 48 45 nan 46 44 45 48 50 52 56 57 56 54 50 47 47 nan nan nan
27 28 28 29 30 30 30 29 28 30 31 31 31 31 31 30 29 29 30 29 27 24 21 17 15 15 14 14 13 13 16 26 26 29 31 32 35 31 30 32 33 35 38 40 43 46 46 43 40 39 40 41 41 44 43 44 44 44 45 45 46 46 44 46 53 54 50 48 49 nan nan 49 53 54 55 57 57 55 53 nan nan nan nan nan nan
29 28 28 30 32 32 31 31 30 31 33 33 31 31 32 32 30 30 29 30 30 27 21 18 16 16 16 16 15 15 19 24 29 31 33 35 34 30 32 32 34 36 38 40 42 45 45 42 40 40 42 41 44 47 48 48 44 44 44 44 42 40 38 43 46 48 53 53 52 51 50 51 51 51 52 54 56 56 55 nan nan nan nan nan nan
31 31 30 31 32 32 32 32 32 33 34 33 32 32 32 32 30 29 29 31 30 26 23 21 19 18 19 18 18 19 22 25 32 34 36 37 37 33 33 34 34 36 37 40 44 45 44 44 42 41 44 43 48 50 51 49 46 45 45 44 41 43 nan nan nan nan nan 52 52 52 52 51 52 52 54 54 59 58 57 nan nan nan nan nan nan
35 36 33 31 29 28 30 31 33 35 35 34 34 33 33 32 31 30 29 31 29 28 26 24 22 22 20 20 23 24 24 26 32 36 38 38 37 33 34 35 37 37 39 40 43 44 42 41 45 45 46 48 53 53 53 50 47 47 46 45 nan nan nan nan nan nan 55 56 55 55 55 54 55 55 55 56 57 nan nan nan nan nan nan nan nan
36 36 35 31 27 27 29 30 32 34 35 35 36 34 33 33 32 31 30 31 30 30 28 25 24 24 23 24 27 27 28 29 30 37 38 39 41 36 35 37 38 39 40 42 43 41 42 41 43 48 51 53 52 53 52 52 48 46 nan 45 nan nan nan nan nan nan nan nan nan nan 53 52 52 52 52 nan nan nan nan nan nan nan nan nan nan
39 38 36 33 30 28 29 29 29 32 34 37 37 37 36 34 34 32 31 31 31 30 28 26 26 26 27 28 30 30 31 33 32 36 38 40 41 40 36 38 39 41 43 43 44 45 44 43 43 48 52 51 50 50 50 49 46 45 46 nan nan nan nan nan nan nan nan nan 53 52 51 51 50 nan nan nan nan nan nan nan nan nan nan nan nan
42 40 39 39 37 34 30 28 28 30 33 37 39 38 37 36 36 34 34 33 31 29 29 29 29 30 30 31 33 34 36 39 37 37 40 40 41 42 38 39 43 45 45 45 46 47 46 45 44 46 50 49 48 47 47 47 47 44 nan nan nan nan nan nan nan nan nan 52 51 50 49 nan nan nan nan nan nan nan nan nan nan nan nan nan nan
46 45 45 45 44 40 35 32 32 33 34 36 36 36 39 39 36 37 36 34 31 30 31 33 34 35 35 35 37 38 38 39 44 42 39 39 39 40 41 42 47 47 47 47 47 46 44 45 44 47 46 47 46 45 47 49 nan nan nan nan nan nan nan nan nan nan 51 49 49 nan nan nan nan nan nan nan nan nan nan nan nan nan nan nan nan
50 49 47 46 45 42 40 38 38 37 36 37 36 37 40 41 41 39 37 35 34 34 36 37 39 39 38 39 41 41 41 43 44 46 40 38 38 41 41 46 49 46 48 48 47 46 45 45 46 48 46 46 46 48 49 nan nan nan nan nan nan nan nan nan nan 49 48 nan nan nan nan nan nan nan nan nan nan nan nan nan nan nan nan nan nan
51 50 48 48 48 47 47 48 47 43 40 40 39 37 39 44 46 44 42 40 40 39 39 40 41 42 43 43 43 44 44 46 48 44 43 40 40 42 43 47 50 53 49 48 49 48 47 51 52 nan 47 48 49 nan nan nan nan nan nan nan nan nan nan nan nan nan nan nan nan nan nan nan nan nan nan nan nan nan nan nan nan nan nan nan nan
55 53 51 51 51 53 53 52 52 48 43 43 41 42 43 45 46 49 49 47 46 45 45 46 47 48 47 46 47 49 49 50 52 47 39 38 39 41 45 48 50 52 52 51 55 56 nan nan nan 51 50 48 nan nan nan nan nan nan nan nan nan nan nan nan nan nan nan nan nan nan nan nan nan nan nan nan nan nan nan nan nan nan nan nan nan
60 60 58 57 57 57 57 58 57 53 49 48 46 48 50 49 48 51 53 53 54 53 54 55 58 57 54 50 50 53 53 52 53 47 41 39 40 42 46 47 51 53 50 51 55 nan nan 52 50 49 48 nan nan nan nan nan nan nan nan nan nan nan nan nan nan nan nan nan nan nan nan nan nan nan nan nan nan nan nan nan nan nan nan nan nan
60 59 59 60 60 59 59 61 63 61 59 57 54 54 55 53 52 52 53 57 62 62 62 65 67 61 58 56 55 55 54 53 50 45 39 40 42 43 47 49 48 48 51 52 nan nan nan 57 55 50 48 nan nan nan nan nan nan nan nan nan nan nan nan nan nan nan nan nan nan nan nan nan nan nan nan nan nan nan nan nan nan nan nan nan nan
51 51 53 55 54 55 55 58 61 63 68 70 67 62 58 55 54 53 54 60 64 64 62 64 65 63 61 56 56 54 51 46 40 38 39 43 48 48 49 49 48 49 53 nan nan nan 58 56 52 47 nan nan nan nan nan nan nan nan nan nan nan nan nan nan nan nan nan nan nan nan nan nan nan nan nan nan nan nan nan nan nan nan nan nan nan
55 52 51 50 51 54 55 56 59 63 68 71 75 75 76 74 63 57 58 60 64 65 70 70 66 65 64 60 55 51 43 35 41 42 43 48 53 55 54 53 54 55 nan nan nan 59 56 51 nan nan nan nan nan nan nan nan nan nan nan nan nan nan nan nan nan nan nan nan nan nan nan nan nan nan nan nan nan nan nan nan nan nan nan nan nan
56 56 57 56 59 59 58 58 61 64 65 68 71 76 78 80 86 84 80 80 78 75 79 78 73 69 69 66 59 55 49 46 43 44 48 51 53 55 58 59 62 64 63 nan nan 55 50 nan 38 nan nan nan nan nan nan nan nan nan nan nan nan nan nan nan nan nan nan nan nan nan nan nan nan nan nan nan nan nan nan nan nan nan nan nan nan
61 62 64 66 69 70 70 68 66 67 68 70 72 76 80 85 87 87 90 87 85 79 71 71 70 68 70 72 67 57 49 46 46 48 51 53 54 57 61 63 64 66 63 nan nan 51 44 nan nan nan nan nan nan nan nan nan nan nan nan nan nan nan nan nan nan nan nan nan nan nan nan nan nan nan nan nan nan nan nan nan nan nan nan nan nan
64 66 68 72 74 76 75 74 73 69 65 68 75 81 83 86 88 87 93 100 101 93 78 67 70 75 74 73 73 64 50 44 48 51 54 55 58 61 63 64 65 nan nan nan nan nan nan nan nan nan nan nan nan nan nan nan nan nan nan nan nan nan nan nan nan nan nan nan nan nan nan nan nan nan nan nan nan nan nan nan nan nan nan nan nan
59 62 66 68 69 68 68 70 71 71 69 65 60 66 81 86 88 91 95 96 98 97 89 77 76 81 76 69 66 61 54 49 50 54 56 58 62 64 64 nan nan nan nan nan nan nan nan nan nan nan nan nan nan nan nan nan nan nan nan nan nan nan nan nan nan nan nan nan nan nan nan nan nan nan nan nan nan nan nan nan nan nan nan nan nan
54 58 61 57 57 61 63 63 65 67 66 63 59 51 57 86 97 94 93 94 89 84 78 76 78 79 70 61 58 57 54 53 54 56 59 62 66 67 nan nan nan nan nan nan nan nan nan nan nan nan nan nan nan nan nan nan nan nan nan nan nan nan nan nan nan nan nan nan nan nan nan nan nan nan nan nan nan nan nan nan nan nan nan nan nan
53 55 56 56 55 53 51 52 56 58 56 55 50 38 nan 68 87 88 88 84 79 79 80 75 67 67 71 66 61 57 57 57 57 59 61 64 66 nan nan nan nan nan nan nan nan nan nan nan nan nan nan nan nan nan nan nan nan nan nan nan nan nan nan nan nan nan nan nan nan nan nan nan nan nan nan nan nan nan nan nan nan nan nan nan nan
50 53 54 53 50 45 41 36 38 43 nan nan nan 41 48 46 48 60 69 70 70 69 67 61 60 62 64 61 62 60 58 58 59 61 62 nan nan nan nan nan nan nan nan nan nan nan nan nan nan nan nan nan nan nan nan nan nan nan nan nan nan nan nan nan nan nan nan nan nan nan nan nan nan nan nan nan nan nan nan nan nan nan nan nan nan
46 45 39 38 40 39 32 27 22 32 41 39 28 26 38 37 32 39 47 54 56 53 49 44 45 49 52 50 52 51 56 nan nan nan nan nan nan nan nan nan nan nan nan nan nan nan nan nan nan nan nan nan nan nan nan nan nan nan nan nan nan nan nan nan nan nan nan nan nan nan nan nan nan nan nan nan nan nan nan nan nan nan nan nan nan
42 44 45 44 43 40 34 24 17 20 28 32 24 19 23 28 33 37 43 46 49 48 43 38 40 44 46 48 51 52 nan nan nan nan nan nan nan nan nan 50 46 nan nan nan nan nan nan nan nan nan nan nan nan nan nan nan nan nan nan nan nan nan nan nan nan nan nan nan nan nan nan nan nan nan nan nan nan nan nan nan nan nan nan nan nan
39 41 48 54 48 41 32 29 23 20 22 27 28 26 25 28 30 31 33 38 42 44 42 42 43 44 44 47 nan nan nan nan nan nan nan nan nan nan 46 43 39 nan nan nan nan nan nan nan nan nan nan nan nan nan nan nan nan nan nan nan nan nan nan nan nan nan nan nan nan nan nan nan nan nan nan nan nan nan nan nan nan nan nan nan nan
37 41 45 48 48 40 33 29 27 23 22 25 26 24 23 24 26 26 27 29 32 34 37 39 nan 40 nan nan nan nan nan nan nan nan nan nan nan nan nan nan nan nan nan nan nan nan nan nan nan nan nan nan nan nan nan nan nan nan nan nan nan nan nan nan nan nan nan nan nan nan nan nan nan nan nan nan nan nan nan nan nan nan nan nan nan
36 37 38 40 40 38 34 32 31 29 29 28 26 24 23 24 26 28 28 29 30 nan nan nan nan nan nan nan nan nan nan nan nan nan nan nan nan nan nan nan nan nan nan nan nan nan nan nan nan nan nan nan nan nan nan nan nan nan nan nan nan nan nan nan nan nan nan nan nan nan nan nan nan nan nan nan nan nan nan nan nan nan nan nan nan
35 33 34 35 35 34 33 32 32 32 31 29 26 26 27 28 29 31 32 33 nan nan nan nan nan nan nan nan nan nan nan nan nan nan nan nan nan nan nan nan nan nan nan nan nan nan nan nan nan nan nan nan nan nan nan nan nan nan nan nan nan nan nan nan nan nan nan nan nan nan nan nan nan nan nan nan nan nan nan nan nan nan nan nan nan
27 28 30 31 30 29 29 30 31 31 30 30 30 29 30 31 33 35 37 nan nan nan nan nan nan nan nan nan nan nan nan nan nan nan nan nan nan nan nan nan nan nan nan nan nan nan nan nan nan nan nan nan nan nan nan nan nan nan nan nan nan nan nan nan nan nan nan nan nan nan nan nan nan nan nan nan nan nan nan nan nan nan nan nan nan
28 26 28 29 29 30 30 30 32 33 33 32 32 33 33 35 37 nan nan nan nan nan nan nan nan nan nan nan nan nan nan nan nan nan nan nan nan nan nan nan nan nan nan nan nan nan nan nan nan nan nan nan nan nan nan nan nan nan nan nan nan nan nan nan nan nan nan nan nan nan nan nan nan nan nan nan nan nan nan nan nan nan nan nan nan
32 nan 31 31 32 31 31 32 33 34 35 37 38 38 39 40 nan nan nan nan nan nan nan nan nan nan nan nan nan nan nan nan nan nan nan nan nan nan nan nan nan nan nan nan nan nan nan nan nan nan nan nan nan nan nan nan nan nan nan nan nan nan nan nan nan nan nan nan nan nan nan nan nan nan nan nan nan nan nan nan nan nan nan nan nan
nan nan nan nan nan 37 38 38 38 38 39 41 43 45 45 46 47 47 47 47 nan nan nan nan nan nan nan nan nan nan nan nan nan nan nan nan nan nan nan nan nan nan nan nan nan nan nan nan nan nan nan nan nan nan nan nan nan nan nan nan nan nan nan nan nan nan nan nan nan nan nan nan nan nan nan nan nan nan nan nan nan nan nan nan nan
nan nan nan nan nan 40 40 42 42 41 40 41 40 43 46 44 41 41 41 40 39 39 40 41 nan nan nan nan nan nan nan nan nan nan nan nan nan nan nan nan nan nan nan nan nan nan nan nan nan nan nan nan nan nan nan nan nan nan nan nan nan nan nan nan nan nan nan nan nan nan nan nan nan nan nan nan nan nan nan nan nan nan nan nan nan
40 nan nan nan nan 41 43 42 38 36 37 37 31 30 33 35 34 36 37 37 38 39 40 nan nan nan nan nan nan nan nan nan nan nan nan nan nan nan nan nan nan nan nan nan nan nan nan nan nan nan nan nan nan nan nan nan nan nan nan nan nan nan nan nan nan nan nan nan nan nan nan nan nan nan nan nan nan nan nan nan nan nan nan nan nan
nan nan nan nan nan nan nan nan nan nan nan nan nan nan nan 29 28 32 36 37 40 nan nan nan nan nan nan nan nan nan nan nan nan nan nan nan nan nan nan nan nan nan nan nan nan nan nan nan nan nan nan nan nan nan nan nan nan nan nan nan nan nan nan nan nan nan nan nan nan nan nan nan nan nan nan nan nan nan nan nan nan nan nan nan nan
nan nan nan nan nan nan nan nan nan nan nan nan nan 25 25 23 25 31 37 39 40 40 39 39 39 nan nan nan nan nan nan nan nan nan nan nan nan nan nan nan nan nan nan nan nan nan nan nan nan nan nan nan nan nan nan nan nan nan nan nan nan nan nan nan nan nan nan nan nan nan nan nan nan nan nan nan nan nan nan nan nan nan nan nan nan
Wind_Direction
324 320 308 300 292 288 284 279 279 273 273 275 279 282 281 283 284 284 276 277 280 284 280 283 298 315 324 331 332 327 325 324 318 318 321 328 335 nan nan nan nan nan nan nan nan nan nan nan nan nan nan nan nan nan nan nan nan nan nan nan nan nan nan nan nan nan nan nan nan nan nan nan nan nan nan nan nan nan nan nan nan nan nan nan nan
332 326 315 307 304 292 284 277 275 273 276 275 277 279 280 283 283 279 278 275 278 281 276 269 282 306 321 333 329 326 323 320 315 316 322 329 nan nan nan nan nan nan nan nan nan nan nan nan nan nan nan nan nan nan nan nan nan nan nan nan nan nan nan nan nan nan nan nan nan nan nan nan nan nan nan nan nan nan nan nan nan nan nan nan nan
331 323 323 319 314 296 285 281 279 280 282 277 280 282 282 284 282 280 270 267 272 272 267 268 278 295 317 323 321 322 320 315 312 317 324 334 341 nan nan nan nan nan nan nan nan nan nan nan nan nan nan nan nan nan nan nan nan nan nan nan nan nan nan nan nan nan nan nan nan nan nan nan nan nan nan nan nan nan nan nan nan nan nan nan nan
326 331 333 330 318 305 298 289 289 289 289 283 285 284 282 280 277 270 264 266 273 264 260 266 270 291 314 314 318 318 314 312 315 320 330 336 339 341 341 nan nan nan nan nan nan nan nan nan nan nan nan nan nan nan nan nan nan nan nan nan nan nan nan nan nan nan nan nan nan nan nan nan nan nan nan nan nan nan nan 290 289 290 289 nan nan
326 334 338 336 326 319 311 302 304 305 301 287 288 283 279 273 264 261 261 268 270 263 257 260 270 286 302 315 315 315 315 313 319 326 330 331 335 337 341 nan nan nan nan nan nan nan nan nan nan nan nan nan nan nan nan nan nan nan nan nan nan nan nan nan nan nan nan nan nan nan nan nan nan nan nan nan nan 293 292 295 295 291 289 292 293
327 332 336 338 335 330 322 318 324 322 310 292 282 274 269 264 260 254 261 267 266 262 265 264 270 286 293 300 307 312 311 317 325 329 331 329 331 335 338 340 nan nan nan nan nan nan nan nan nan nan nan nan nan nan nan nan nan nan nan nan nan nan nan nan nan nan nan nan nan nan 296 nan nan nan nan 299 298 291 287 294 298 298 296 nan nan
321 328 335 340 336 333 328 328 323 316 304 288 270 264 265 265 264 261 259 262 262 261 263 269 266 273 283 287 303 311 314 318 323 327 328 330 333 335 335 336 nan nan nan nan nan nan 338 nan nan nan nan nan 334 nan nan nan nan nan nan nan nan nan nan nan nan nan nan nan nan 304 299 294 nan 299 294 294 296 292 286 290 303 305 301 301 nan
316 323 327 335 339 337 330 318 308 304 291 278 273 273 273 271 268 260 256 260 262 264 265 265 261 261 272 284 296 301 313 319 324 328 330 332 332 333 333 334 336 nan nan nan nan 337 338 339 339 337 nan nan nan nan nan nan nan nan nan nan nan nan nan nan nan nan nan nan nan 308 298 292 nan 296 290 290 291 287 290 297 304 304 304 nan nan
313 315 322 334 340 333 321 307 293 287 287 284 283 284 286 283 273 263 259 258 255 258 256 256 260 267 271 281 292 302 314 321 323 330 333 333 330 331 333 336 337 336 334 nan nan 338 338 340 340 339 nan nan nan nan nan nan nan nan nan nan nan nan 332 329 nan nan nan nan nan nan 305 295 292 289 287 293 298 nan nan 291 295 298 nan nan nan
306 311 323 334 330 319 316 311 302 291 287 289 289 289 286 284 278 271 265 258 254 254 255 258 266 274 277 284 292 302 314 315 331 342 338 330 327 328 332 337 339 339 338 337 338 341 343 340 339 343 343 343 341 339 338 335 334 nan nan nan nan nan 332 331 328 327 326 326 326 nan nan nan 292 287 292 299 303 301 297 293 293 nan nan nan nan
301 308 323 325 313 308 310 313 311 309 302 291 285 285 286 282 280 275 265 258 255 254 256 264 272 272 280 288 302 307 310 314 334 335 338 334 325 327 334 339 341 340 338 338 341 341 340 338 335 340 341 340 338 340 337 335 335 336 335 335 333 nan nan nan 331 331 332 332 329 nan nan 304 288 285 294 302 305 308 304 297 296 294 nan nan nan
307 310 316 304 299 304 309 310 313 318 311 303 292 285 281 280 280 277 270 264 257 253 258 268 271 271 274 289 306 313 311 317 323 331 332 331 328 328 332 338 341 341 340 339 337 335 335 336 334 332 332 333 331 331 334 336 336 337 338 336 336 332 nan 326 326 326 325 323 322 nan nan 302 292 289 295 299 303 304 304 301 299 298 nan nan nan
310 307 300 295 297 299 301 305 311 314 316 310 295 285 283 282 283 280 277 268 259 258 261 265 269 272 280 295 308 312 303 309 319 327 327 327 331 332 331 337 338 341 341 340 338 332 329 330 331 329 329 335 330 326 326 330 334 337 337 333 325 322 325 322 320 321 318 nan nan nan 311 nan nan 294 295 296 298 300 299 299 299 299 299 298 nan
299 299 293 294 294 294 295 300 305 310 311 306 299 295 293 291 285 278 270 264 264 263 262 270 268 272 281 291 299 297 298 303 318 321 324 326 330 334 334 336 337 337 338 338 337 334 332 328 327 328 325 325 324 324 324 325 325 324 322 321 322 327 327 325 321 320 319 319 nan nan 310 nan 300 297 296 295 297 299 299 301 301 301 301 303 299
289 291 291 290 288 288 292 296 301 303 304 305 304 304 303 294 285 276 271 270 270 269 269 268 266 271 279 282 283 290 293 304 313 322 322 323 330 334 335 333 333 334 335 336 337 337 331 325 323 325 323 322 323 323 322 322 319 321 322 321 323 326 325 321 321 319 314 311 nan 312 308 303 302 302 300 299 301 302 304 306 306 305 nan nan nan
283 284 287 287 289 290 290 292 296 296 299 302 305 308 307 301 291 278 271 268 267 264 260 258 264 269 274 280 286 294 289 304 316 320 321 323 330 327 332 334 334 333 331 333 336 333 328 322 319 321 322 323 324 326 322 317 319 320 321 321 323 322 321 320 318 314 312 315 312 nan nan 306 304 302 301 301 303 305 305 nan nan nan nan nan nan
282 283 285 288 292 290 286 288 291 293 295 300 305 308 307 302 291 279 275 273 271 271 268 263 260 266 273 278 288 290 283 302 314 319 320 327 323 324 329 332 333 331 331 332 329 327 324 318 316 319 321 321 320 319 319 316 317 318 318 319 314 308 313 312 306 306 312 317 316 314 307 302 303 304 305 309 309 307 307 nan nan nan nan nan nan
283 283 285 290 294 289 284 285 288 289 290 297 303 303 301 297 296 287 281 274 272 272 264 256 256 260 268 277 285 285 283 298 314 318 322 325 325 327 327 327 328 328 328 324 323 324 325 327 318 318 320 318 317 316 316 315 315 314 311 311 318 321 nan nan nan nan nan 308 303 303 305 304 304 307 309 309 307 310 308 nan nan nan nan nan nan
282 283 287 293 292 283 278 282 285 286 290 294 295 297 299 301 295 285 276 270 268 262 257 254 256 257 264 274 285 289 285 297 313 315 320 324 325 321 321 324 325 325 324 322 321 322 322 323 323 320 318 316 317 316 317 315 313 313 315 320 nan nan nan nan nan nan 303 302 301 301 301 304 305 306 306 307 310 nan nan nan nan nan nan nan nan
280 281 283 286 280 271 269 276 280 282 287 289 289 293 293 290 289 284 277 269 263 258 255 255 260 262 266 274 278 287 288 289 304 314 318 320 325 319 318 319 322 324 322 320 319 319 319 319 322 320 316 316 318 318 318 318 315 314 nan 319 nan nan nan nan nan nan nan nan nan nan 305 307 308 308 308 nan nan nan nan nan nan nan nan nan nan
275 277 279 280 278 274 267 269 277 280 282 284 285 284 285 288 286 283 277 267 260 256 257 256 259 263 267 272 276 282 286 289 298 310 313 318 323 321 317 320 320 320 320 318 317 317 315 315 311 314 316 319 319 320 320 319 315 314 318 nan nan nan nan nan nan nan nan nan 307 308 309 310 311 nan nan nan nan nan nan nan nan nan nan nan nan
275 275 272 273 275 274 269 262 265 267 269 270 273 278 281 283 282 281 273 266 262 259 256 256 259 262 265 270 273 279 283 293 290 302 308 315 320 326 317 318 317 316 316 316 316 314 312 313 313 316 317 318 318 318 318 317 315 312 nan nan nan nan nan nan nan nan nan 308 310 311 313 nan nan nan nan nan nan nan nan nan nan nan nan nan nan
266 265 265 268 271 274 271 265 258 255 258 262 266 271 272 275 275 274 272 266 261 259 257 257 258 261 264 265 268 273 278 283 291 292 304 313 320 324 321 312 312 312 313 316 319 317 312 314 315 316 316 316 317 316 313 313 nan nan nan nan nan nan nan nan nan nan 311 312 313 nan nan nan nan nan nan nan nan nan nan nan nan nan nan nan nan
265 266 269 270 272 272 271 269 264 258 257 257 259 261 265 268 268 267 266 262 258 257 254 256 259 263 265 264 263 266 273 277 283 293 299 310 312 319 316 309 310 310 311 312 312 312 313 315 315 315 315 315 313 309 310 nan nan nan nan nan nan nan nan nan nan 315 314 nan nan nan nan nan nan nan nan nan nan nan nan nan nan nan nan nan nan
265 266 269 271 273 271 268 268 269 265 257 255 254 256 261 265 264 263 263 261 260 261 259 260 263 263 264 265 264 265 269 272 274 283 297 304 309 314 313 305 307 305 304 307 310 312 314 315 314 nan 314 306 303 nan nan nan nan nan nan nan nan nan nan nan nan nan nan nan nan nan nan nan nan nan nan nan nan nan nan nan nan nan nan nan nan
273 274 273 272 273 271 269 270 272 270 264 258 256 253 256 260 262 262 262 260 258 259 259 260 260 260 262 262 263 264 266 268 271 274 283 294 298 304 302 297 302 304 305 308 312 312 nan nan nan 311 303 302 nan nan nan nan nan nan nan nan nan nan nan nan nan nan nan nan nan nan nan nan nan nan nan nan nan nan nan nan nan nan nan nan nan
271 272 274 275 276 277 279 277 278 277 272 263 257 252 251 253 256 259 261 260 258 255 254 254 253 254 254 254 257 260 262 265 268 271 279 285 288 293 294 295 298 298 301 304 305 nan nan 307 305 304 300 nan nan nan nan nan nan nan nan nan nan nan nan nan nan nan nan nan nan nan nan nan nan nan nan nan nan nan nan nan nan nan nan nan nan
272 274 277 277 277 278 279 283 283 278 277 272 263 255 250 251 254 258 262 263 261 260 259 258 257 254 251 249 251 254 257 261 266 274 280 285 288 291 293 295 298 301 302 303 nan nan nan 302 299 298 297 nan nan nan nan nan nan nan nan nan nan nan nan nan nan nan nan nan nan nan nan nan nan nan nan nan nan nan nan nan nan nan nan nan nan
268 275 278 279 281 281 280 279 277 275 272 268 266 265 263 257 254 254 258 263 266 266 264 263 265 268 266 257 249 248 253 262 269 276 287 292 292 291 291 294 298 299 301 nan nan nan 304 303 301 299 nan nan nan nan nan nan nan nan nan nan nan nan nan nan nan nan nan nan nan nan nan nan nan nan nan nan nan nan nan nan nan nan nan nan nan
265 265 265 270 274 278 278 278 278 275 273 272 270 260 251 248 248 255 256 261 267 266 260 256 256 258 261 261 253 251 259 268 274 283 290 291 291 294 295 297 296 294 nan nan nan 305 309 306 nan nan nan nan nan nan nan nan nan nan nan nan nan nan nan nan nan nan nan nan nan nan nan nan nan nan nan nan nan nan nan nan nan nan nan nan nan
261 259 258 260 256 257 262 266 272 274 275 275 272 268 262 253 246 244 248 252 252 252 252 253 256 258 260 260 248 246 260 275 285 285 286 287 288 290 293 292 292 295 295 nan nan 305 307 nan 302 nan nan nan nan nan nan nan nan nan nan nan nan nan nan nan nan nan nan nan nan nan nan nan nan nan nan nan nan nan nan nan nan nan nan nan nan
266 266 266 265 263 263 262 260 260 266 272 273 272 270 267 262 250 246 252 256 259 262 262 258 257 257 261 260 254 250 267 282 284 284 285 286 287 289 289 290 293 296 299 nan nan 304 304 nan nan nan nan nan nan nan nan nan nan nan nan nan nan nan nan nan nan nan nan nan nan nan nan nan nan nan nan nan nan nan nan nan nan nan nan nan nan
271 270 270 269 269 268 268 266 264 262 262 267 273 271 267 262 260 258 251 251 250 247 247 250 251 252 256 259 263 268 276 281 282 283 284 285 286 287 289 292 295 nan nan nan nan nan nan nan nan nan nan nan nan nan nan nan nan nan nan nan nan nan nan nan nan nan nan nan nan nan nan nan nan nan nan nan nan nan nan nan nan nan nan nan nan
268 268 268 270 270 270 270 272 272 269 265 262 267 275 270 263 261 258 255 252 247 246 244 239 241 246 249 257 262 266 274 279 279 281 281 282 283 284 284 nan nan nan nan nan nan nan nan nan nan nan nan nan nan nan nan nan nan nan nan nan nan nan nan nan nan nan nan nan nan nan nan nan nan nan nan nan nan nan nan nan nan nan nan nan nan
267 267 267 269 273 278 278 272 268 266 266 269 272 264 258 258 250 248 247 246 248 247 245 239 234 235 243 249 259 265 271 275 275 277 279 279 280 282 nan nan nan nan nan nan nan nan nan nan nan nan nan nan nan nan nan nan nan nan nan nan nan nan nan nan nan nan nan nan nan nan nan nan nan nan nan nan nan nan nan nan nan nan nan nan nan
269 269 270 270 273 276 277 276 277 273 268 265 258 246 nan 224 233 237 242 244 244 241 235 232 236 236 239 243 250 257 263 267 271 274 278 280 282 nan nan nan nan nan nan nan nan nan nan nan nan nan nan nan nan nan nan nan nan nan nan nan nan nan nan nan nan nan nan nan nan nan nan nan nan nan nan nan nan nan nan nan nan nan nan nan nan
272 274 276 275 274 274 273 277 281 275 nan nan nan 236 232 235 226 227 231 235 232 230 232 233 238 236 235 239 247 251 256 263 267 271 275 nan nan nan nan nan nan nan nan nan nan nan nan nan nan nan nan nan nan nan nan nan nan nan nan nan nan nan nan nan nan nan nan nan nan nan nan nan nan nan nan nan nan nan nan nan nan nan nan nan nan
274 275 274 277 282 277 271 275 280 273 269 281 279 242 233 233 223 216 223 225 225 227 227 229 236 240 242 246 253 255 257 nan nan nan nan nan nan nan nan nan nan nan nan nan nan nan nan nan nan nan nan nan nan nan nan nan nan nan nan nan nan nan nan nan nan nan nan nan nan nan nan nan nan nan nan nan nan nan nan nan nan nan nan nan nan
277 268 264 268 279 285 282 274 288 291 274 270 272 265 241 227 220 220 223 225 227 227 231 240 250 255 256 260 260 261 nan nan nan nan nan nan nan nan nan 285 284 nan nan nan nan nan nan nan nan nan nan nan nan nan nan nan nan nan nan nan nan nan nan nan nan nan nan nan nan nan nan nan nan nan nan nan nan nan nan nan nan nan nan nan nan
280 273 272 279 285 283 279 281 288 300 297 285 277 275 266 248 239 237 236 235 235 238 244 256 263 264 263 262 nan nan nan nan nan nan nan nan nan nan 281 279 278 nan nan nan nan nan nan nan nan nan nan nan nan nan nan nan nan nan nan nan nan nan nan nan nan nan nan nan nan nan nan nan nan nan nan nan nan nan nan nan nan nan nan nan nan
277 273 276 283 288 283 281 283 283 284 287 291 292 287 277 266 260 257 254 251 250 251 255 260 nan 262 nan nan nan nan nan nan nan nan nan nan nan nan nan nan nan nan nan nan nan nan nan nan nan nan nan nan nan nan nan nan nan nan nan nan nan nan nan nan nan nan nan nan nan nan nan nan nan nan nan nan nan nan nan nan nan nan nan nan nan
268 273 277 281 284 282 278 277 278 278 280 283 285 285 282 278 274 271 268 264 259 nan nan nan nan nan nan nan nan nan nan nan nan nan nan nan nan nan nan nan nan nan nan nan nan nan nan nan nan nan nan nan nan nan nan nan nan nan nan nan nan nan nan nan nan nan nan nan nan nan nan nan nan nan nan nan nan nan nan nan nan nan nan nan nan
258 265 270 272 274 278 278 275 274 275 276 279 281 279 277 274 270 268 267 267 nan nan nan nan nan nan nan nan nan nan nan nan nan nan nan nan nan nan nan nan nan nan nan nan nan nan nan nan nan nan nan nan nan nan nan nan nan nan nan nan nan nan nan nan nan nan nan nan nan nan nan nan nan nan nan nan nan nan nan nan nan nan nan nan nan
251 265 272 271 271 273 275 279 279 278 278 280 280 278 275 272 269 269 268 nan nan nan nan nan nan nan nan nan nan nan nan nan nan nan nan nan nan nan nan nan nan nan nan nan nan nan nan nan nan nan nan nan nan nan nan nan nan nan nan nan nan nan nan nan nan nan nan nan nan nan nan nan nan nan nan nan nan nan nan nan nan nan nan nan nan
257 268 275 275 277 280 280 280 282 283 281 281 278 277 279 277 275 nan nan nan nan nan nan nan nan nan nan nan nan nan nan nan nan nan nan nan nan nan nan nan nan nan nan nan nan nan nan nan nan nan nan nan nan nan nan nan nan nan nan nan nan nan nan nan nan nan nan nan nan nan nan nan nan nan nan nan nan nan nan nan nan nan nan nan nan
263 nan 270 271 273 274 275 278 280 279 278 278 278 275 271 269 nan nan nan nan nan nan nan nan nan nan nan nan nan nan nan nan nan nan nan nan nan nan nan nan nan nan nan nan nan nan nan nan nan nan nan nan nan nan nan nan nan nan nan nan nan nan nan nan nan nan nan nan nan nan nan nan nan nan nan nan nan nan nan nan nan nan nan nan nan
nan nan nan nan nan 274 275 276 275 273 270 268 270 271 270 268 267 266 267 270 nan nan nan nan nan nan nan nan nan nan nan nan nan nan nan nan nan nan nan nan nan nan nan nan nan nan nan nan nan nan nan nan nan nan nan nan nan nan nan nan nan nan nan nan nan nan nan nan nan nan nan nan nan nan nan nan nan nan nan nan nan nan nan nan nan
nan nan nan nan nan 264 263 266 268 267 267 267 269 274 272 270 271 271 268 267 267 267 268 269 nan nan nan nan nan nan nan nan nan nan nan nan nan nan nan nan nan nan nan nan nan nan nan nan nan nan nan nan nan nan nan nan nan nan nan nan nan nan nan nan nan nan nan nan nan nan nan nan nan nan nan nan nan nan nan nan nan nan nan nan nan
267 nan nan nan nan 260 260 260 260 262 263 260 254 254 260 266 268 266 264 266 270 272 272 nan nan nan nan nan nan nan nan nan nan nan nan nan nan nan nan nan nan nan nan nan nan nan nan nan nan nan nan nan nan nan nan nan nan nan nan nan nan nan nan nan nan nan nan nan nan nan nan nan nan nan nan nan nan nan nan nan nan nan nan nan nan
nan nan nan nan nan nan nan nan nan nan nan nan nan nan nan 239 240 253 259 263 267 nan nan nan nan nan nan nan nan nan nan nan nan nan nan nan nan nan nan nan nan nan nan nan nan nan nan nan nan nan nan nan nan nan nan nan nan nan nan nan nan nan nan nan nan nan nan nan nan nan nan nan nan nan nan nan nan nan nan nan nan nan nan nan nan
nan nan nan nan nan nan nan nan nan nan nan nan nan 245 242 242 243 252 261 267 266 264 262 263 264 nan nan nan nan nan nan nan nan nan nan nan nan nan nan nan nan nan nan nan nan nan nan nan nan nan nan nan nan nan nan nan nan nan nan nan nan nan nan nan nan nan nan nan nan nan nan nan nan nan nan nan nan nan nan nan nan nan nan nan nan